Regional Weather Roundup
Issued by NWS Cleveland, OH

Home | Current Version | Previous Version | Text Only | Print | Product List | Glossary Off
Versions: 1 2 3 4 5 6 7 8 9 10 11 12 13 14 15 16 17 18 19 20 21 22 23 24 25 26 27 28 29 30 31 32 33 34 35 36 37 38 39 40 41 42 43 44 45 46 47 48 49 50

000
ASUS41 KCLE 252002
RWRCLE
OHIO REGIONAL WEATHER ROUNDUP
NATIONAL WEATHER SERVICE CLEVELAND, OH
300 PM EST TUE NOV 25 2014

NOTE: "FAIR" INDICATES FEW OR NO CLOUDS BELOW 12,000 FEET WITH NO
SIGNIFICANT WEATHER AND/OR OBSTRUCTIONS TO VISIBILITY.

OHZ001>008-015>018-024>027-034-035-043-044-252100-
   NORTHWEST OHIO

CITY           SKY/WX    TMP DP  RH WIND       PRES   REMARKS
DEFIANCE       NOT AVBL
FINDLAY        CLOUDY    32  26  78 W14       30.09R WCI  22
TOLEDO EXPRESS CLOUDY    31  20  63 W17       30.09R WCI  19
TOLEDO EXEC    CLOUDY    32  21  64 W16       30.10R WCI  21
LIMA           CLOUDY    32  24  72 W18       30.11R WCI  20
$$

OHZ009>014-019>023-028>033-038-089-252100-
   NORTHEAST OHIO

CITY           SKY/WX    TMP DP  RH WIND       PRES   REMARKS
CLE-HOPKINS    CLOUDY    36  26  67 W10       30.09R
CLE-LAKEFRONT  CLOUDY    37  26  64 SW17G25   30.07R
CUY CO. ARPT   CLOUDY    37  28  70 W16       30.06R
LORAIN-ELYRIA  CLOUDY    34  27  75 W16       30.08R WCI  24
ASHTABULA      CLOUDY    36  25  64 W14G24    30.05R
AKRON-CANTON   CLOUDY    37  25  61 W12       30.06S
WOOSTER        CLOUDY    36  26  67 W13       30.07R
MANSFIELD      CLOUDY    35  27  72 W12G20    30.07R WCI  27
YOUNGSTOWN     CLOUDY    37  27  67 W14G22    30.04R
$$

OHZ042-051>053-060>062-070>072-077>081-252100-
  SOUTHWEST OHIO

CITY           SKY/WX    TMP DP  RH WIND       PRES   REMARKS
CINC-COVINGTON PTSUNNY   44  27  51 W10       30.10S
CINC-LUNKEN    PTSUNNY   44  28  53 NW5       30.12F
HAMILTON       CLOUDY    42  29  59 W6        30.13R
DAYTON         CLOUDY    37  30  75 W9        30.12R
WRIGHT-PAT AFB CLOUDY    39  28  65 W12       30.11R
DAYTON GENERAL CLOUDY    40  28  62 W9        30.10R
WILMINGTON     PTSUNNY   42  27  55 W12       30.09S
$$

OHZ036-037-039>041-045>050-054>059-063>069-073>076-082>088-252100-
  CENTRAL AND SOUTHEAST OHIO

CITY           SKY/WX    TMP DP  RH WIND       PRES   REMARKS
COLUMBUS       CLOUDY    39  26  59 W12       30.10R
OSU AIRPORT    CLOUDY    38  27  64 SW9       30.10R
BOLTON FIELD   CLOUDY    37  28  70 SW12      30.11R
RICKENBACK AFB PTSUNNY   41  28  60 W14       30.10S
NEWARK         CLOUDY    41  27  57 W14       30.09R
MARION         CLOUDY    35  27  72 W12       30.10R WCI  27
LANCASTER      PTSUNNY   42  28  57 W10G20    30.10S
ZANESVILLE     MOSUNNY   42  27  55 W14       30.08R
NEW PHILLY     CLOUDY    40  27  59 W9G20     30.09R
$$



USA.gov is the U.S. government's official web portal to all federal, state and local government web resources and services.